Regional Weather Roundup
Issued by NWS Spokane, WA

Home | Current Version | Previous Version | Text Only | Print | Product List | Glossary On
Versions: 1 2 3 4 5 6 7 8 9 10 11 12 13 14 15 16 17 18 19 20 21 22 23 24 25 26 27 28 29 30 31 32 33 34 35 36 37 38 39 40 41 42 43 44 45 46 47 48 49 50
000
NZUS01 KOTX 310910
RWROTX
EASTERN WASHINGTON/NORTHERN IDAHO ROUNDUP
NATIONAL WEATHER SERVICE, SPOKANE WA
100 AM PST SAT JAN 31 2015

Note: "fair" indicated few or no clouds below 12,000 feet with no
significant weather and/or obstructions to visibility.

...NORTHEAST WASHINGTON AND NORTHERN IDAHO PANHANDLE...

CITY           SKY/WX    TMP DP  RH WIND       PRES   REMARKS
SPOKANE INTL   FLURRIES  30  28  92 S3        30.23S
SPOKANE DOWNTO CLOUDY    32  29  88 CALM      30.25S
COEUR D ALENE  CLOUDY    30  28  93 SW5       30.22F WCI  25
DEER PARK      CLOUDY    29  28  96 SE3       30.23F FOG
SANDPOINT      CLOUDY    32  30  93 SW9       30.22S WCI  24
BONNERS FERRY  CLOUDY    30  28  93 SW5       30.17S WCI  25

...SOUTHEAST WASHINGTON AND SOUTHERN IDAHO PANHANDLE...

CITY           SKY/WX    TMP DP  RH WIND       PRES   REMARKS
WALLA WALLA    CLOUDY    36  33  89 CALM      30.27S
PULLMAN/MOSCOW CLOUDY    30  26  85 CALM      30.23S
LEWISTON       CLOUDY    36  32  85 NW5       30.26R
LOWELL           N/A     34  30  85 CALM      30.28F

...COLUMBIA BASIN...

CITY           SKY/WX    TMP DP  RH WIND       PRES   REMARKS
EPHRATA        CLOUDY    35  34  96 SE6       30.26R
MOSES LAKE     CLOUDY    35  33  92 SE6       30.27S FOG
TRI CITIES     CLOUDY    37  34  89 SW7       30.30F
HERMISTON      CLOUDY    37  34  89 S3        30.28F
PENDLETON      CLOUDY    34  32  92 W3        30.24F

...EAST SLOPES CASCADES...

CITY           SKY/WX    TMP DP  RH WIND       PRES   REMARKS
THE DALLES     CLOUDY    39  34  82 W3        30.30F
YAKIMA         CLOUDY    36  31  82 CALM      30.25F
ELLENSBURG     CLOUDY    34  30  85 CALM      30.21F
WENATCHEE      CLOUDY    35  30  82 NW5       30.25R
OMAK           CLOUDY    33  31  92 CALM      30.27F

...SOUTHERN BRITISH COLUMBIA...

CITY           SKY/WX    TMP DP  RH WIND       PRES   REMARKS
PENTICTON      CLOUDY    37  30  75 NE2       30.30R
CRANBROOK      LGT SNOW  25  23  93 W3        30.11F FOG

...WESTERN MONTANA...

CITY           SKY/WX    TMP DP  RH WIND       PRES   REMARKS
MISSOULA       CLOUDY    24  21  88 E3        30.15F

...NEIGHBORING CITIES...

CITY           SKY/WX    TMP DP  RH WIND       PRES   REMARKS
SEATTLE        FOG       38  36  92 N5        30.25F VSB 1/8
CALGARY        FLURRIES  16  12  86 NE17      30.20R WCI   0



USA.gov is the U.S. government's official web portal to all federal, state and local government web resources and services.